SL-8 DEB

Satellite information

Favourite Embed

Satellite Type and Status

DEBRISIN ORBIT

Key statistics

Satellite SL-8 DEB at a glance.

Uptime

16241

Days in orbit

Revolutions

≈ 15.0

Per day

Orbit

LEO

Low Earth Orbit

Inclination

74.0

Latest

Satellite identification and parameters

Extended collection of information and parameters for SL-8 DEB.

Object identification

Identified? True

Debris? True

Object name: SL-8 DEB

International designator: 1981-041D

Object number (NORAD): 14346

Object ID (CCSDS): 14346

Country: COMMONWEALTH OF INDEPENDENT STATES (CIS)

Current information (Y/N): Y

RCS size: SMALL

Orbital parameters

Period: 96.076 minutes

Inclination: 74.03 deg

SMA: 6948.717 km

Apoapsis: 573.821 km

Periapsis: 567.343 km

RAAN: 294.9577 deg

Eccentricy: 0.00046611

Argument of periapsis: 99.987 deg

Mean anomaly: 322.7539 deg

Mean motion: 14.98807406 rev/day

Mean motion (dot): 0.00014355 rev/day2

B* drag term: 0.0011909121 1/REarth

Two-line elements (TLE)

Creation date: Oct. 24, 2025, 2:48 a.m.

Reference frame: TEME

Reference center: EARTH

Epoch: Oct. 23, 2025, 7:17 p.m. UTC

TLE line 0: 0 SL-8 DEB

TLE line 1: 1 14346U 81041D 25296.80382549 .00014355 00000-0 11909-2 0 9995

TLE line 2: 2 14346 74.0300 294.9577 0004661 99.9870 322.7539 14.98807406259224

Live tracking on map

Real-time ground track for satellite SL-8 DEB.

In-orbit conjunctions

A list of the most updated potential collisions computed for object SL-8 DEB.

Target Orbit TCA Probability of collision Miss distance Type
LANDSAT 5 SSO 2025-06-29 01:57:19 0.001741958 53.0 (m) PAYLOAD
CZ-2D R/B SSO 2025-04-08 09:55:06 0.004953944 34.0 (m) ROCKET BODY
INTERCOSMOS 25 HEO 2025-02-21 16:26:24 0.0001712808 80.0 (m) PAYLOAD

Associated space launch

Military communications satellite

SL-8 DEB was lifted into orbit during the mission ‘Kosmos-3M | Strela-2M 24’, on board a Kosmos-3M space rocket.

The launch took place on May 7, 1981, 1:21 p.m. from 132/1 (132L).

For more information about the launch, click the button.

Launch to space Kosmos-3M | Strela-2M 24
Kosmos-3M | Strela-2M 24

Agency: N/A

Status: Launch Successful

Launch date: May 7, 1981, 1:21 p.m. UTC

Rocket: Kosmos-3M

Launch pad: 132/1 (132L)

Location: Plesetsk Cosmodrome, Russian Federation

...

Latest news about this satellite

There are no fresh news available about this satellite. Check back as we update our databases every day.


Newsletter sign-up

Weekly statistics, charts and insights to help you stay on top of the space industry.